CAPE
564 931 1493 908 789 726 663 756 789 785 746 516 204 10 8 4 0 0 0 0 0 3 41 21 8 25 86 80 81 43 15 0 0 0 0 0 0 0 0 1 0 1 4
674 916 1378 1146 672 474 367 271 415 590 658 466 184 17 15 7 0 0 0 0 0 5 19 51 92 135 115 77 38 23 1 0 0 0 0 0 0 0 0 0 0 0 0
772 813 853 1149 984 483 107 87 57 73 201 214 132 19 22 2 0 0 0 0 2 5 10 7 6 5 12 2 0 0 0 0 0 0 0 0 0 0 0 0 0 4 4
720 846 772 1221 872 295 135 95 53 25 42 165 179 104 40 1 0 0 0 0 1 4 2 0 0 0 0 0 0 0 0 0 0 6 0 0 0 1 0 0 0 0 12
850 859 861 1310 911 417 185 59 21 30 44 222 470 151 2 0 1 1 0 0 0 1 0 0 0 0 0 0 0 0 0 0 6 0 0 0 5 14 3 0 0 0 0
848 908 1202 1367 1070 745 418 112 133 95 194 131 357 206 39 3 4 3 0 0 0 1 2 0 0 0 0 0 0 0 0 4 2 8 3 12 23 36 11 4 99 96 80
927 1087 1184 1445 1166 812 319 267 417 277 153 43 57 24 9 4 6 2 0 0 0 1 4 3 0 0 0 0 0 0 3 11 0 0 5 26 33 34 22 52 18 28 83
1010 1183 1157 1287 1261 1051 694 340 465 659 357 228 150 99 35 32 31 28 15 0 0 0 5 9 2 1 1 0 0 0 0 0 0 0 3 8 30 11 3 1 3 130 112
1140 1161 1138 1108 984 879 718 387 394 655 361 316 326 382 310 230 239 139 70 16 1 0 13 4 3 56 16 0 0 0 0 0 0 0 0 0 2 0 2 8 63 16 15
1270 1187 1163 1124 869 569 393 387 312 542 421 363 487 354 134 314 530 489 302 220 18 41 158 155 118 31 0 0 0 0 0 0 0 0 0 0 0 2 38 41 38 32 23
1360 1315 1171 1032 815 531 332 269 316 346 376 361 340 58 96 299 375 254 103 190 191 214 191 41 33 0 0 0 0 0 0 0 0 0 0 0 58 36 59 30 22 34 22
1518 1583 1250 1040 825 561 396 278 202 145 153 146 122 54 3 270 243 156 120 89 321 330 111 1 0 0 0 0 0 0 0 0 0 0 0 0 25 44 27 18 16 25 16
1539 1568 1387 1062 909 702 596 309 218 107 85 95 71 76 13 21 205 149 118 38 64 55 0 0 0 0 0 0 0 0 0 0 0 0 0 55 8 33 13 7 4 3 5
1573 1465 1336 1179 1074 868 767 591 341 131 30 19 36 35 23 0 133 194 95 3 0 0 0 0 0 0 0 0 0 0 0 0 0 0 0 0 4 6 3 0 0 0 0
835 1338 1476 1328 1263 1079 975 754 496 305 79 5 0 0 2 0 6 97 0 0 1 0 0 0 0 0 0 0 0 0 0 0 0 0 0 0 0 0 0 0 0 0 0
468 763 1404 1488 1340 1203 1149 937 670 589 436 115 80 144 18 21 14 47 0 23 14 0 0 0 0 0 0 0 0 0 0 0 0 0 0 0 0 0 0 0 0 0 0
0 280 746 1507 1573 1443 1286 1151 898 866 643 369 318 293 280 278 157 14 1 92 8 24 0 0 0 0 0 0 0 0 0 0 0 0 0 0 0 0 0 0 0 0 0
0 0 169 762 1319 1624 1469 1320 1067 1017 748 650 531 460 430 315 190 0 18 101 41 83 0 0 0 0 0 0 0 0 0 0 0 0 0 0 0 0 0 0 0 0 0
0 0 0 384 813 1347 1431 1346 1219 1113 921 752 799 596 578 359 286 175 51 55 78 95 22 7 0 0 0 0 0 0 0 0 0 0 0 0 0 0 0 0 0 0 0
0 0 0 96 741 1021 1163 1244 1289 1164 1038 812 830 729 473 399 369 181 58 91 122 134 30 5 0 0 0 0 0 0 0 0 0 0 0 0 0 0 0 0 0 0 0
0 0 0 0 455 1045 1169 1104 1156 1171 1119 991 907 987 583 471 402 360 93 103 138 80 4 0 0 0 0 0 0 0 0 0 0 0 0 0 0 0 0 0 0 0 0
0 0 0 0 0 748 1189 1166 1034 1260 1228 1171 1050 1018 844 540 471 455 377 174 191 16 2 3 0 0 0 0 0 0 0 0 0 0 0 0 0 0 0 0 0 0 0
0 0 0 0 0 214 1156 1305 1118 995 895 1088 1103 1158 879 649 584 616 463 375 303 124 5 3 1 0 0 0 0 0 0 0 0 0 0 0 0 0 0 0 0 0 0
0 0 0 0 0 0 755 1193 1101 773 738 901 1175 1029 741 606 541 447 384 387 397 80 12 8 0 0 0 0 0 0 0 0 0 0 0 0 0 0 0 0 0 0 0
0 0 0 0 0 0 6 813 1011 738 514 638 1028 918 772 593 462 438 469 524 503 141 2 3 0 10 0 0 0 0 0 0 0 0 0 0 0 0 0 0 0 0 0
0 0 0 0 0 0 0 216 684 658 711 729 836 758 670 533 519 499 468 722 496 237 14 7 11 11 8 0 0 0 0 0 0 0 0 0 0 0 0 0 0 0 0
CIN
-213 -152 -95 -147 -152 -144 -135 -109 -89 -69 -55 -67 -104 0 0 -0 0 0 0 0 0 0 -1 -0 -0 -1 -166 -0 -0 -13 -22 0 0 0 0 0 0 0 0 -0 -0 -4 -4
-230 -163 -101 -116 -171 -191 -197 -197 -139 -92 -69 -81 -125 0 0 -0 0 0 0 0 0 0 0 -24 -187 -115 -163 -1 -6 -19 -1 0 0 0 0 0 0 0 0 0 0 0 0
-215 -175 -145 -105 -118 -190 -289 -306 -305 -274 -151 -129 -162 -11 -0 -0 0 0 0 0 -0 0 -0 0 0 -14 -24 -32 0 0 0 0 0 0 0 0 0 0 0 0 0 -1 -2
-232 -170 -158 -92 -120 -230 -278 -300 -341 -347 -260 -158 -152 -184 -148 0 0 0 0 0 0 0 -0 0 0 -0 0 0 0 0 0 0 0 -11 0 0 0 -1 0 0 0 0 -3
-217 -170 -145 -84 -116 -199 -256 -352 -403 -346 -284 -154 -101 -144 0 0 0 -0 0 0 0 0 0 0 0 0 0 0 0 0 0 0 -24 0 0 0 -14 -5 -2 0 0 0 0
-205 -160 -96 -77 -99 -130 -183 -270 -254 -263 -188 -175 -107 -126 -146 0 0 0 0 0 0 0 0 0 0 0 0 0 0 0 0 -14 -50 -21 -8 -12 -16 -6 -3 0 -73 -97 -120
-189 -135 -97 -69 -91 -116 -215 -225 -185 -202 -220 -262 -209 -176 -199 -0 -51 0 0 0 0 -0 -0 0 -0 0 0 0 0 0 -8 -21 0 0 -13 -23 -9 -4 -1 -109 -1 -179 -105
-200 -117 -94 -69 -68 -87 -128 -210 -181 -136 -182 -197 -200 -187 -219 -193 -174 -157 -102 0 0 0 -0 0 0 0 0 0 0 0 0 0 0 0 -7 -20 -10 -5 -0 0 -11 -70 -94
-152 -113 -89 -77 -85 -96 -120 -197 -193 -132 -184 -177 -154 -122 -115 -110 -79 -98 -107 -133 -0 -0 -50 0 0 -50 -92 0 0 0 0 0 0 0 0 0 -3 0 -0 0 -152 0 -50
-94 -102 -88 -78 -98 -153 -206 -194 -214 -143 -165 -171 -125 -137 -193 -115 -59 -48 -72 -71 -167 -137 -53 -45 -43 -80 0 0 0 0 0 0 0 0 0 0 0 0 -0 0 0 0 -3
-65 -55 -76 -83 -108 -170 -229 -251 -218 -201 -189 -184 -177 -307 -257 -132 -101 -125 -166 -110 -94 -79 -68 -121 -112 0 0 0 0 0 0 0 0 0 0 0 -239 0 -59 0 0 0 0
-37 -25 -66 -87 -111 -148 -182 -257 -292 -317 -303 -297 -300 -340 -27 -169 -171 -200 -188 -187 -82 -77 -133 -38 0 0 0 0 0 0 0 0 0 0 0 0 0 -91 -2 -1 0 -0 0
-52 -37 -50 -88 -94 -118 -132 -226 -297 -369 -371 -347 -354 -343 -391 -180 -216 -235 -226 -246 -211 -180 0 0 0 0 0 0 0 0 0 0 0 0 0 -32 0 -1 -1 -0 -0 -0 -0
-63 -66 -76 -81 -72 -101 -106 -143 -182 -357 -427 -406 -391 -382 -407 -24 -277 -233 -256 -338 0 0 0 0 0 0 0 0 0 0 0 0 0 0 0 0 -0 -0 -0 0 0 0 0
-50 -74 -82 -81 -80 -96 -92 -111 -142 -190 -376 -340 0 0 -298 0 -355 -281 0 0 -116 0 0 0 0 0 0 0 0 0 0 0 0 0 0 0 0 0 0 0 0 0 0
-21 -37 -102 -64 -84 -95 -109 -113 -122 -112 -134 -251 -294 -268 -187 -349 -392 -324 0 -232 -277 0 0 0 0 0 0 0 0 0 0 0 0 0 0 0 0 0 0 0 0 0 0
0 -37 -22 -109 -58 -48 -71 -91 -77 -80 -97 -157 -154 -171 -187 -184 -219 -379 -94 -214 -269 -205 0 0 0 0 0 0 0 0 0 0 0 0 0 0 0 0 0 0 0 0 0
0 0 -74 -19 -89 -54 -56 -64 -50 -62 -88 -99 -105 -116 -151 -149 -181 -55 -338 -187 -209 -151 0 0 0 0 0 0 0 0 0 0 0 0 0 0 0 0 0 0 0 0 0
0 0 0 -67 -35 -60 -63 -50 -51 -39 -63 -84 -61 -90 -99 -119 -101 -120 -196 -195 -143 -104 -172 -182 0 0 0 0 0 0 0 0 0 0 0 0 0 0 0 0 0 0 0
0 0 0 -197 -47 -62 -43 -46 -28 -22 -33 -61 -44 -50 -87 -79 -62 -91 -153 -110 -85 -70 -134 -192 0 0 0 0 0 0 0 0 0 0 0 0 0 0 0 0 0 0 0
0 0 0 0 -92 -46 -58 -67 -41 -20 -17 -35 -37 -15 -33 -46 -41 -40 -114 -81 -47 -66 -107 0 0 0 0 0 0 0 0 0 0 0 0 0 0 0 0 0 0 0 0
0 0 0 0 0 -69 -57 -54 -85 -55 -35 -30 -34 -24 -12 -22 -27 -26 -26 -62 -22 -73 -7 -1 0 0 0 0 0 0 0 0 0 0 0 0 0 0 0 0 0 0 0
0 0 0 0 0 -159 -77 -71 -55 -55 -54 -29 -27 -13 -24 -17 -7 -3 -5 -6 -1 -19 0 0 -0 0 0 0 0 0 0 0 0 0 0 0 0 0 0 0 0 0 0
0 0 0 0 0 0 -78 -66 -35 -39 -31 -47 -42 -42 -40 -41 -27 -16 -12 -15 0 -9 0 -30 -0 0 0 0 0 0 0 0 0 0 0 0 0 0 0 0 0 0 0
0 0 0 0 0 0 -18 -71 -46 -21 -28 -66 -49 -45 -48 -52 -51 -28 -11 -9 -0 -0 -1 -5 -0 0 0 0 0 0 0 0 0 0 0 0 0 0 0 0 0 0 0
0 0 0 0 0 0 0 -220 -72 -42 -22 -39 -40 -46 -37 -44 -44 -28 -33 -3 -0 0 -6 -0 -2 -1 -1 0 0 0 0 0 0 0 0 0 0 0 0 0 0 0 0
Wind_Speed
22 22 29 31 32 33 34 33 32 32 31 33 33 nan nan nan nan nan nan nan nan nan nan nan nan nan nan nan nan nan nan nan nan nan nan nan nan nan nan nan nan nan nan
26 25 30 29 31 33 32 31 31 29 29 31 33 nan nan nan nan nan nan nan nan nan nan nan nan 31 30 nan nan nan nan nan nan nan nan nan nan nan nan nan nan nan nan
29 26 27 29 30 32 33 nan nan nan 30 30 32 nan nan nan nan nan nan nan nan nan nan nan nan nan nan nan nan nan nan nan nan nan nan nan nan nan nan nan nan nan nan
29 25 25 30 31 34 33 nan nan nan nan 32 30 34 nan nan nan nan nan nan nan nan nan nan nan nan nan nan nan nan nan nan nan nan nan nan nan nan nan nan nan nan nan
28 26 24 30 31 33 34 nan nan nan nan 31 31 38 nan nan nan nan nan nan nan nan nan nan nan nan nan nan nan nan nan nan nan nan nan nan nan nan nan nan nan nan nan
26 25 27 29 30 31 32 32 35 nan 35 35 36 35 nan nan nan nan nan nan nan nan nan nan nan nan nan nan nan nan nan nan nan nan nan nan nan nan nan nan nan nan nan
28 27 28 31 31 31 32 31 33 35 36 nan nan nan nan nan nan nan nan nan nan nan nan nan nan nan nan nan nan nan nan nan nan nan nan nan nan nan nan nan nan nan nan
31 30 29 32 32 33 32 31 31 34 34 33 33 nan nan nan nan nan nan nan nan nan nan nan nan nan nan nan nan nan nan nan nan nan nan nan nan nan nan nan nan 38 38
32 30 29 28 28 31 31 30 30 33 31 31 30 30 29 26 25 27 nan nan nan nan nan nan nan nan nan nan nan nan nan nan nan nan nan nan nan nan nan nan nan nan nan
30 30 29 29 27 27 28 29 28 29 30 29 28 28 25 21 23 29 27 24 nan nan 25 26 26 nan nan nan nan nan nan nan nan nan nan nan nan nan nan nan nan nan nan
29 29 30 30 29 29 28 27 29 30 30 29 27 nan nan 23 25 26 25 26 24 24 24 nan nan nan nan nan nan nan nan nan nan nan nan nan nan nan nan nan nan nan nan
29 29 31 32 31 31 29 29 29 28 27 28 28 nan nan 25 25 24 23 nan 23 23 23 nan nan nan nan nan nan nan nan nan nan nan nan nan nan nan nan nan nan nan nan
27 28 30 32 32 32 31 31 30 30 nan nan nan nan nan nan 25 24 23 nan nan nan nan nan nan nan nan nan nan nan nan nan nan nan nan nan nan nan nan nan nan nan nan
24 25 28 29 30 32 34 33 33 33 nan nan nan nan nan nan 30 28 nan nan nan nan nan nan nan nan nan nan nan nan nan nan nan nan nan nan nan nan nan nan nan nan nan
22 23 24 27 27 30 31 31 33 33 nan nan nan nan nan nan nan nan nan nan nan nan nan nan nan nan nan nan nan nan nan nan nan nan nan nan nan nan nan nan nan nan nan
25 25 27 25 27 29 30 31 31 32 33 34 nan 32 nan nan nan nan nan nan nan nan nan nan nan nan nan nan nan nan nan nan nan nan nan nan nan nan nan nan nan nan nan
nan 26 25 27 29 29 29 30 30 30 30 32 31 32 33 32 31 nan nan nan nan nan nan nan nan nan nan nan nan nan nan nan nan nan nan nan nan nan nan nan nan nan nan
nan nan 25 25 28 28 32 31 27 30 29 28 27 28 29 31 35 nan nan 31 nan nan nan nan nan nan nan nan nan nan nan nan nan nan nan nan nan nan nan nan nan nan nan
nan nan nan 28 24 25 28 33 31 28 29 26 24 24 27 34 39 36 nan nan nan nan nan nan nan nan nan nan nan nan nan nan nan nan nan nan nan nan nan nan nan nan nan
nan nan nan nan 27 25 30 33 35 31 29 28 26 24 29 33 37 37 nan nan 37 37 nan nan nan nan nan nan nan nan nan nan nan nan nan nan nan nan nan nan nan nan nan
nan nan nan nan 29 31 32 34 35 34 33 32 31 33 31 36 35 35 nan 38 40 nan nan nan nan nan nan nan nan nan nan nan nan nan nan nan nan nan nan nan nan nan nan
nan nan nan nan nan 30 33 34 37 38 41 36 35 35 34 39 39 38 37 35 36 nan nan nan nan nan nan nan nan nan nan nan nan nan nan nan nan nan nan nan nan nan nan
nan nan nan nan nan 36 33 42 44 47 47 46 40 35 37 38 43 40 37 39 36 37 nan nan nan nan nan nan nan nan nan nan nan nan nan nan nan nan nan nan nan nan nan
nan nan nan nan nan nan 44 40 36 38 42 41 44 44 45 42 41 45 40 40 40 nan nan nan nan nan nan nan nan nan nan nan nan nan nan nan nan nan nan nan nan nan nan
nan nan nan nan nan nan nan 45 41 37 42 46 49 52 52 49 45 47 49 44 44 41 nan nan nan nan nan nan nan nan nan nan nan nan nan nan nan nan nan nan nan nan nan
nan nan nan nan nan nan nan 46 45 48 47 49 45 49 53 53 52 50 53 49 49 46 nan nan nan nan nan nan nan nan nan nan nan nan nan nan nan nan nan nan nan nan nan
Wind_Direction
286 295 295 297 294 291 288 287 286 287 285 285 286 nan nan nan nan nan nan nan nan nan nan nan nan nan nan nan nan nan nan nan nan nan nan nan nan nan nan nan nan nan nan
288 290 294 299 301 295 289 285 283 284 283 283 285 nan nan nan nan nan nan nan nan nan nan nan nan 276 281 nan nan nan nan nan nan nan nan nan nan nan nan nan nan nan nan
291 295 293 297 296 295 293 nan nan nan 288 287 286 nan nan nan nan nan nan nan nan nan nan nan nan nan nan nan nan nan nan nan nan nan nan nan nan nan nan nan nan nan nan
295 294 297 298 295 295 295 nan nan nan nan 294 296 291 nan nan nan nan nan nan nan nan nan nan nan nan nan nan nan nan nan nan nan nan nan nan nan nan nan nan nan nan nan
287 291 294 301 297 296 294 nan nan nan nan 293 300 293 nan nan nan nan nan nan nan nan nan nan nan nan nan nan nan nan nan nan nan nan nan nan nan nan nan nan nan nan nan
283 285 294 298 297 296 293 292 296 nan 297 291 291 293 nan nan nan nan nan nan nan nan nan nan nan nan nan nan nan nan nan nan nan nan nan nan nan nan nan nan nan nan nan
280 282 290 298 299 298 297 297 299 300 299 nan nan nan nan nan nan nan nan nan nan nan nan nan nan nan nan nan nan nan nan nan nan nan nan nan nan nan nan nan nan nan nan
282 283 289 299 301 302 303 304 306 305 306 305 301 nan nan nan nan nan nan nan nan nan nan nan nan nan nan nan nan nan nan nan nan nan nan nan nan nan nan nan nan 264 261
277 281 282 285 292 299 301 303 306 307 308 310 308 300 298 296 299 301 nan nan nan nan nan nan nan nan nan nan nan nan nan nan nan nan nan nan nan nan nan nan nan nan nan
273 277 277 279 283 284 286 297 299 303 304 309 307 299 297 295 306 305 299 296 nan nan 285 283 280 nan nan nan nan nan nan nan nan nan nan nan nan nan nan nan nan nan nan
263 272 279 280 275 272 275 283 290 294 293 297 298 nan nan 286 284 294 298 301 298 294 288 nan nan nan nan nan nan nan nan nan nan nan nan nan nan nan nan nan nan nan nan
272 273 272 274 274 275 275 275 276 281 282 284 287 nan nan 290 287 288 292 nan 301 300 295 nan nan nan nan nan nan nan nan nan nan nan nan nan nan nan nan nan nan nan nan
278 272 279 275 273 276 275 272 270 271 nan nan nan nan nan nan 290 283 283 nan nan nan nan nan nan nan nan nan nan nan nan nan nan nan nan nan nan nan nan nan nan nan nan
283 282 283 283 279 277 270 272 274 275 nan nan nan nan nan nan 289 285 nan nan nan nan nan nan nan nan nan nan nan nan nan nan nan nan nan nan nan nan nan nan nan nan nan
277 283 287 284 285 283 279 277 276 278 nan nan nan nan nan nan nan nan nan nan nan nan nan nan nan nan nan nan nan nan nan nan nan nan nan nan nan nan nan nan nan nan nan
264 272 281 289 287 285 283 285 282 284 285 281 nan 280 nan nan nan nan nan nan nan nan nan nan nan nan nan nan nan nan nan nan nan nan nan nan nan nan nan nan nan nan nan
nan 268 276 288 290 290 288 285 283 284 283 283 282 282 286 286 284 nan nan nan nan nan nan nan nan nan nan nan nan nan nan nan nan nan nan nan nan nan nan nan nan nan nan
nan nan 270 271 284 288 290 287 279 280 281 282 285 278 287 289 285 nan nan 287 nan nan nan nan nan nan nan nan nan nan nan nan nan nan nan nan nan nan nan nan nan nan nan
nan nan nan 270 276 283 279 280 278 278 276 280 285 284 282 276 277 281 nan nan nan nan nan nan nan nan nan nan nan nan nan nan nan nan nan nan nan nan nan nan nan nan nan
nan nan nan nan 269 272 262 265 266 268 267 275 278 281 281 277 282 280 nan nan 280 281 nan nan nan nan nan nan nan nan nan nan nan nan nan nan nan nan nan nan nan nan nan
nan nan nan nan 269 263 259 263 265 273 266 262 271 274 282 284 285 285 nan 280 279 nan nan nan nan nan nan nan nan nan nan nan nan nan nan nan nan nan nan nan nan nan nan
nan nan nan nan nan 264 261 259 255 265 264 267 263 274 281 285 283 282 286 286 286 nan nan nan nan nan nan nan nan nan nan nan nan nan nan nan nan nan nan nan nan nan nan
nan nan nan nan nan 259 264 253 249 251 252 259 263 266 272 274 281 284 286 285 286 286 nan nan nan nan nan nan nan nan nan nan nan nan nan nan nan nan nan nan nan nan nan
nan nan nan nan nan nan 259 262 268 267 268 263 268 263 266 272 280 286 285 285 284 nan nan nan nan nan nan nan nan nan nan nan nan nan nan nan nan nan nan nan nan nan nan
nan nan nan nan nan nan nan 265 266 268 267 264 263 270 268 267 272 278 282 284 282 278 nan nan nan nan nan nan nan nan nan nan nan nan nan nan nan nan nan nan nan nan nan
nan nan nan nan nan nan nan 260 269 269 267 268 267 267 267 264 266 272 276 280 281 279 nan nan nan nan nan nan nan nan nan nan nan nan nan nan nan nan nan nan nan nan nan